User: anonymous   Login
Location: Unspecified
(0.0000°N, 0.0000°E)
Time: 04:13:15
(UTC+00:00)
Language:

STARLINK-31630 - Orbit

View from above orbital plane
View from above orbital plane
View from above satellite
View from above satellite

Ground track
Ground track

The orbit is defined by the following mean orbital elements,

1 59271U          26145.56802353 +.00000000 +00000-0 -13575-4 0 00003
2 59271  53.1598 170.7777 0000676  56.9623 303.1444 15.33559433    03
Epoch (UTC): 25 May 2026 13:37:57
Eccentricity: 0.0000676
inclination: 53.1598°
perigee height: 465 km
apogee height: 466 km
right ascension of ascending node: 170.7777°
argument of perigee: 56.9623°
revolutions per day: 15.33559433
mean anomaly at epoch: 303.1444°

The dashed part of the orbit path shows where the satellite is in the earth's shadow,  

DLR